Weather History for College Park, MD

Change the Weather History Date:

Monday, February 18, 2013

  Actual Average Record
Temperature  
Mean Temperature 33 °F -  
Max Temperature 43 °F 44 °F 77 °F (2011)
Min Temperature 23 °F 27 °F -2 °F (1979)
Degree Days  
Heating Degree Days 32    
Moisture  
Dew Point 12 °F    
Average Humidity 44    
Maximum Humidity 77    
Minimum Humidity 27    
Precipitation  
Precipitation 0.00 in - - ()
Sea Level Pressure  
Sea Level Pressure 30.29 in    
Wind  
Wind Speed 7 mph (West)    
Max Wind Speed 17 mph    
Max Gust Speed 24 mph    
Visibility 10 miles    
Events      
Averages and records for this station are not official NWS values.
T = Trace of Precipitation, MM = Missing Value Source: NWS Daily Summary

Daily Weather History Graph

Daily Weather History Graph

Search for Another Location

Airport:

Trip Planner

Search our weather history database for the weather conditions in past years. The results will help you decide how hot, cold, wet, or windy it might be!

Date:

Astronomy

Feb. 18, 2013 Rise Set
Actual Time 6:54 AM EST 5:48 PM EST
Civil Twilight 6:27 AM EST 6:15 PM EST
Nautical Twilight 5:56 AM EST 6:47 PM EST
Astronomical Twilight 5:25 AM EST 7:18 PM EST
Moon 11:34 AM EST (2/18) 1:31 AM EST (2/18)
Length of Visible Light 11h 48m
Length of Day
10h 53m
First Quarter, 58% of the Moon is Illuminated
Feb 18
First Quarter
Feb 25
Full
Mar 4
Last Quarter
Mar 11
New
Mar 19
First Quarter

Hourly Weather History & Observations

Time (EST) Temp. Windchill Dew Point Humidity Pressure Visibility Wind Dir Wind Speed Gust Speed Precip Events Conditions
12:00 AM 27.5 °F 16.8 °F 7.7 °F 43% 30.21 in 10.0 mi NW 12.7 mph 24.2 mph N/A   Scattered Clouds
12:20 AM 27.0 °F 14.3 °F 7.3 °F 44% 30.22 in 10.0 mi WNW 17.3 mph 21.9 mph N/A   Clear
12:35 AM 27.1 °F 15.4 °F 6.6 °F 42% 30.22 in 10.0 mi NW 15.0 mph 24.2 mph N/A   Clear
1:20 AM 26.6 °F 19.1 °F 6.8 °F 43% 30.24 in 10.0 mi NW 6.9 mph 16.1 mph N/A   Clear
2:00 AM 26.1 °F 16.2 °F 6.6 °F 44% 30.25 in 10.0 mi NNW 10.4 mph 16.1 mph N/A   Clear
2:20 AM 26.1 °F 15.6 °F 6.6 °F 44% 30.25 in 10.0 mi NW 11.5 mph 17.3 mph N/A   Clear
2:40 AM 25.7 °F 18.0 °F 6.8 °F 45% 30.26 in 10.0 mi NW 6.9 mph - N/A   Clear
3:00 AM 25.5 °F 15.5 °F 6.8 °F 45% 30.26 in 10.0 mi WNW 10.4 mph 17.3 mph N/A   Clear
3:20 AM 25.3 °F 17.6 °F 6.8 °F 45% 30.26 in 10.0 mi West 6.9 mph 18.4 mph N/A   Clear
3:40 AM 25.0 °F 16.3 °F 6.8 °F 46% 30.27 in 10.0 mi West 8.1 mph 16.1 mph N/A   Clear
4:00 AM 24.8 °F 16.1 °F 7.0 °F 47% 30.27 in 10.0 mi West 8.1 mph - N/A   Clear
4:20 AM 24.4 °F 14.9 °F 7.5 °F 49% 30.28 in 10.0 mi WNW 9.2 mph - N/A   Clear
4:40 AM 24.6 °F 17.7 °F 7.5 °F 48% 30.29 in 10.0 mi West 5.8 mph - N/A   Clear
5:00 AM 24.4 °F 20.1 °F 7.5 °F 49% 30.30 in 10.0 mi West 3.5 mph - N/A   Clear
5:20 AM 24.3 °F 18.4 °F 7.9 °F 50% 30.31 in 10.0 mi West 4.6 mph - N/A   Clear
5:40 AM 23.9 °F 19.5 °F 8.1 °F 51% 30.32 in 10.0 mi West 3.5 mph - N/A   Clear
6:20 AM 24.3 °F 16.3 °F 8.4 °F 51% 30.33 in 10.0 mi West 6.9 mph - N/A   Clear
6:40 AM 23.9 °F 19.5 °F 8.6 °F 52% 30.34 in 10.0 mi West 3.5 mph - N/A   Clear
7:20 AM 23.9 °F 19.5 °F 9.5 °F 54% 30.36 in 10.0 mi West 3.5 mph - N/A   Clear
7:40 AM 25.0 °F - 9.9 °F 53% 30.37 in 10.0 mi Calm Calm - N/A   Clear
8:00 AM 26.1 °F 20.5 °F 10.2 °F 51% 30.37 in 10.0 mi West 4.6 mph - N/A   Clear
8:20 AM 27.3 °F 22.0 °F 10.4 °F 49% 30.38 in 10.0 mi West 4.6 mph - N/A   Clear
8:40 AM 28.0 °F 21.7 °F 9.9 °F 47% 30.39 in 10.0 mi NW 5.8 mph - N/A   Clear
9:00 AM 28.8 °F 20.2 °F 9.3 °F 44% 30.39 in 10.0 mi West 9.2 mph - N/A   Clear
9:20 AM 29.3 °F 21.5 °F 9.3 °F 43% 30.39 in 10.0 mi NW 8.1 mph 16.1 mph N/A   Clear
9:40 AM 30.4 °F 22.9 °F 9.7 °F 42% 30.39 in 10.0 mi WNW 8.1 mph - N/A   Clear
10:00 AM 31.5 °F 24.9 °F 9.0 °F 39% 30.39 in 10.0 mi West 6.9 mph - N/A   Clear
10:20 AM 32.0 °F 26.4 °F 9.1 °F 38% 30.38 in 10.0 mi WNW 5.8 mph - N/A   Clear
10:40 AM 32.2 °F 25.0 °F 9.0 °F 38% 30.38 in 10.0 mi West 8.1 mph - N/A   Clear
11:00 AM 33.1 °F 27.7 °F 9.9 °F 38% 30.38 in 10.0 mi WSW 5.8 mph - N/A   Clear
11:20 AM 34.2 °F 30.0 °F 9.1 °F 35% 30.38 in 10.0 mi West 4.6 mph - N/A   Clear
11:40 AM 35.2 °F 28.8 °F 10.0 °F 35% 30.37 in 10.0 mi West 8.1 mph - N/A   Clear
12:00 PM 34.9 °F - 9.5 °F 35% 30.35 in 10.0 mi Calm Calm - N/A   Clear
12:20 PM 35.8 °F 30.9 °F 9.5 °F 34% 30.35 in 10.0 mi West 5.8 mph - N/A   Clear
12:40 PM 37.2 °F 34.7 °F 9.1 °F 31% 30.33 in 10.0 mi SW 3.5 mph - N/A   Clear
1:00 PM 37.9 °F 34.4 °F 9.3 °F 31% 30.32 in 10.0 mi South 4.6 mph - N/A   Clear
1:20 PM 39.2 °F - 9.1 °F 29% 30.31 in 10.0 mi Calm Calm - N/A   Clear
1:40 PM 40.5 °F 36.5 °F 9.7 °F 28% 30.30 in 10.0 mi SW 5.8 mph - N/A   Clear
2:00 PM 40.3 °F 38.2 °F 9.9 °F 29% 30.29 in 10.0 mi SW 3.5 mph - N/A   Clear
2:20 PM 41.4 °F 38.4 °F 10.2 °F 28% 30.28 in 10.0 mi South 4.6 mph - N/A   Clear
2:40 PM 42.4 °F 38.8 °F 10.4 °F 27% 30.27 in 10.0 mi South 5.8 mph - N/A   Clear
3:00 PM 42.6 °F 38.4 °F 11.3 °F 28% 30.26 in 10.0 mi SSE 6.9 mph - N/A   Clear
3:15 PM 43.3 °F 39.9 °F 11.1 °F 27% 30.26 in 10.0 mi South 5.8 mph - N/A   Clear
3:40 PM 43.3 °F 39.9 °F 10.8 °F 27% 30.26 in 10.0 mi South 5.8 mph - N/A   Clear
4:00 PM 43.9 °F 39.3 °F 12.0 °F 27% 30.25 in 10.0 mi South 8.1 mph - N/A   Clear
4:20 PM 43.5 °F 38.9 °F 12.0 °F 28% 30.25 in 10.0 mi South 8.1 mph - N/A   Clear
4:40 PM 43.0 °F 40.3 °F 12.0 °F 28% 30.25 in 10.0 mi South 4.6 mph - N/A   Clear
5:00 PM 43.2 °F 40.5 °F 12.0 °F 28% 30.25 in 10.0 mi South 4.6 mph - N/A   Clear
5:20 PM 42.8 °F 40.1 °F 11.5 °F 28% 30.25 in 10.0 mi South 4.6 mph - N/A   Clear
5:40 PM 41.9 °F - 11.5 °F 29% 30.26 in 10.0 mi Calm Calm - N/A   Clear
6:00 PM 41.4 °F - 11.3 °F 29% 30.26 in 10.0 mi Calm Calm - N/A   Clear
6:20 PM 39.4 °F - 12.6 °F 33% 30.26 in 10.0 mi Calm Calm - N/A   Clear
7:40 PM 32.9 °F - 19.9 °F 59% 30.25 in 10.0 mi Calm Calm - N/A   Clear
8:00 PM 33.1 °F - 17.2 °F 52% 30.24 in 10.0 mi Calm Calm - N/A   Clear
8:20 PM 32.4 °F - 19.8 °F 60% 30.23 in 10.0 mi Calm Calm - N/A   Clear
8:40 PM 32.0 °F - 20.8 °F 63% 30.23 in 10.0 mi Calm Calm - N/A   Clear
9:00 PM 32.0 °F - 19.6 °F 60% 30.23 in 10.0 mi Calm Calm - N/A   Clear
9:20 PM 32.0 °F - 20.1 °F 62% 30.22 in 10.0 mi Calm Calm - N/A   Clear
9:35 PM 32.0 °F - 21.6 °F 65% 30.22 in 10.0 mi Calm Calm - N/A   Clear
10:00 PM 32.0 °F - 22.1 °F 67% 30.21 in 10.0 mi Calm Calm - N/A   Clear
10:20 PM 31.6 °F - 22.1 °F 68% 30.20 in 10.0 mi Calm Calm - N/A   Clear
10:40 PM 32.0 °F - 20.1 °F 62% 30.20 in 10.0 mi Calm Calm - N/A   Clear
11:00 PM 31.3 °F - 22.6 °F 70% 30.20 in 10.0 mi Calm Calm - N/A   Clear
11:20 PM 31.1 °F - 24.8 °F 77% 30.19 in 10.0 mi Calm Calm - N/A   Clear
11:40 PM 31.1 °F - 23.9 °F 75% 30.18 in 10.0 mi Calm Calm - N/A   Clear